Miscellaneous Local Product
Issued by NWS Hastings, NE

Home | Current Version | Previous Version | Text Only | Print | Product List | Glossary On
Versions: 1 2 3 4 5 6 7 8 9 10 11 12 13 14 15 16 17 18 19 20 21 22 23 24 25 26 27 28 29 30 31 32 33 34 35 36 37 38 39 40 41 42 43 44 45 46 47 48 49 50
086
AXUS43 KGID 212028
MISGRI

GID CWA HOURLY WEATHER ROUNDUP
NATIONAL WEATHER SERVICE HASTINGS NE
200 PM CST SAT JAN 21 2017

NOTE: "FAIR" INDICATES FEW OR NO CLOUDS BELOW 12,000 FEET WITH NO
SIGNIFICANT WEATHER AND/OR OBSTRUCTIONS TO VISIBILITY.

...SOUTH CENTRAL NEBRASKA...

CITY           SKY/WX    TMP DP  RH WIND       PRES   REMARKS
GRAND ISLAND   SUNNY     50  37  61 S8        29.43S
HASTINGS       SUNNY     49  38  65 VRB7      29.44F
ORD            SUNNY     50  33  52 CALM      29.41R
YORK           SUNNY     48  39  71 SW9       29.44S
AURORA         SUNNY     49  39  66 SW6       29.43F
LEXINGTON      SUNNY     48  36  64 CALM      29.41F
HOLDREGE       SUNNY     48  36  63 CALM      29.41F
HEBRON         SUNNY     51  40  66 SW5       29.43F

...NEBRASKA PANHANDLE...

CITY           SKY/WX    TMP DP  RH WIND       PRES   REMARKS
CHADRON        SUNNY     36  27  69 NW5       29.42S WCI  32
ALLIANCE       SUNNY     44  27  51 W9        29.39F
SCOTTSBLUFF    SUNNY     42  27  55 CALM      29.40F
SIDNEY         CLOUDY    41  24  51 S7        29.40F

...WESTERN AND NORTH CENTRAL NEBRASKA...

CITY           SKY/WX    TMP DP  RH WIND       PRES   REMARKS
VALENTINE      CLOUDY    43  30  60 NW12      29.40S
AINSWORTH      CLOUDY    46  32  58 NW13      29.40R
ONEILL         SUNNY     50  32  51 W12       29.40R
BROKEN BOW     SUNNY     48  36  63 CALM      29.40S
IMPERIAL       SUNNY     47  27  45 CALM      29.40F
NORTH PLATTE   SUNNY     47  31  53 W7        29.42S
MCCOOK         SUNNY     49  32  52 CALM      29.41F

...EASTERN NEBRASKA...

CITY           SKY/WX    TMP DP  RH WIND       PRES   REMARKS
NORFOLK        SUNNY     47  34  60 NW9       29.40R
SO SIOUX CITY  CLOUDY    44  38  79 NW7       29.41S
TEKAMAH        MOSUNNY   49  39  68 SW12      29.42S
COLUMBUS       SUNNY     50  39  66 W7        29.44R
ALBION         SUNNY     49  16  27 W7        29.41S
OMAHA EPPLEY   MOSUNNY   50  38  63 S8        29.43S
OFFUTT AFB     SUNNY     51  42  72 SW10      29.43F
MILLARD        MOSUNNY   52  40  64 SW10      29.44S
LINCOLN        SUNNY     51  38  60 SW9       29.45F
NEBRASKA CITY  SUNNY     51  38  62 W12       29.44F
BEATRICE       SUNNY     52  42  68 W9        29.44F
FALLS CITY     SUNNY     53  40  61 SW7       29.44F

...NORTHERN KANSAS...

CITY           SKY/WX    TMP DP  RH WIND       PRES   REMARKS
GOODLAND       CLOUDY    46  34  62 E10       29.37F
HILL CITY      SUNNY     54  35  48 SE8       29.40F
NORTON         CLEAR     50  32  50 CALM      29.40F
PHILLIPSBURG   SUNNY     54  36  50 CALM      29.41F
SMITH CENTER   SUNNY     50  37  62 E3        29.43S
HAYS           SUNNY     53  35  50 SE6       29.41F
RUSSELL        SUNNY     53  37  54 E7        29.40F
CONCORDIA      SUNNY     52  39  61 VRB5      29.44F
SALINA         SUNNY     52  41  66 SE3       29.45F
TOPEKA         SUNNY     55  41  59 VRB6      29.46F



USA.gov is the U.S. government's official web portal to all federal, state and local government web resources and services.